| time (UTC) | temp F | wind direction | speed MPH | gust MPH | rain 1hr in | rain 24hr in | rain mn in | humidity % | barometer mb |
| 20260903060024 | 61 | 316 | 0.0 | 0.0 | 0.00 | 0.00 | 0.00 | 76 | 1021.6 |
| 20260903054519 | 60 | 316 | 0.0 | 1.0 | 0.00 | 0.00 | 0.00 | 74 | 1021.4 |
| 20260903053015 | 59 | 316 | 0.0 | 0.0 | 0.00 | 0.00 | 0.00 | 73 | 1021.4 |
| 20260903051512 | 60 | 316 | 0.0 | 0.0 | 0.00 | 0.00 | 0.00 | 71 | 1021.0 |
| 20260903050010 | 59 | 316 | 0.0 | 0.0 | 0.00 | 0.00 | 0.00 | 74 | 1021.0 |
| 20260903044506 | 60 | 316 | 0.0 | 0.0 | 0.00 | 0.00 | 0.00 | 70 | 1020.8 |
| 20260903043004 | 60 | 316 | 0.0 | 0.0 | 0.00 | 0.00 | 0.00 | 71 | 1020.4 |
| 20260903041502 | 61 | 316 | 0.0 | 0.0 | 0.00 | 0.00 | 0.00 | 68 | 1020.3 |
| 20260903040104 | 62 | 315 | 0.0 | 2.0 | 0.00 | 0.00 | 0.00 | 68 | 1020.2 |
| 20260903034600 | 62 | 315 | 0.0 | 1.0 | 0.00 | 0.00 | 0.00 | 68 | 1020.1 |
| 20260903033058 | 61 | 315 | 0.0 | 0.0 | 0.00 | 0.00 | 0.00 | 69 | 1020.1 |
| 20260903031557 | 62 | 315 | 0.0 | 0.0 | 0.00 | 0.00 | 0.00 | 67 | 1020.0 |
| 20260903030056 | 63 | 315 | 0.0 | 0.0 | 0.00 | 0.00 | 0.00 | 66 | 1020.0 |
| 20260903024555 | 63 | 315 | 0.0 | 0.0 | 0.00 | 0.00 | 0.00 | 66 | 1020.0 |
| 20260903023054 | 63 | 314 | 0.0 | 0.0 | 0.00 | 0.00 | 0.00 | 65 | 1020.0 |
| 20260903021554 | 63 | 314 | 0.0 | 3.0 | 0.00 | 0.00 | 0.00 | 66 | 1020.0 |
| 20260903020054 | 62 | 312 | 0.0 | 0.0 | 0.00 | 0.00 | 0.00 | 68 | 1020.0 |
| 20260903014552 | 63 | 312 | 0.0 | 0.0 | 0.00 | 0.00 | 0.00 | 66 | 1020.0 |
| 20260903013050 | 64 | 312 | 0.0 | 0.0 | 0.00 | 0.00 | 0.00 | 65 | 1020.0 |
| 20260903011601 | 64 | 312 | 0.0 | 0.0 | 0.00 | 0.00 | 0.00 | 65 | 1020.0 |
| 20260903010050 | 64 | 312 | 0.0 | 0.0 | 0.00 | 0.00 | 0.00 | 65 | 1020.0 |
| 20260903004546 | 64 | 312 | 0.0 | 0.0 | 0.00 | 0.00 | 0.00 | 65 | 1019.9 |
| 20260903003044 | 64 | 312 | 0.0 | 0.0 | 0.00 | 0.00 | 0.00 | 64 | 1019.9 |
| 20260903001543 | 64 | 312 | 0.0 | 0.0 | 0.00 | 0.00 | 0.00 | 64 | 1019.9 |
| 20260903000042 | 65 | 312 | 0.0 | 0.0 | 0.00 | 0.00 | 0.00 | 64 | 1019.8 |
| 20260902234542 | 65 | 312 | 0.0 | 0.0 | 0.00 | 0.00 | 0.00 | 64 | 1019.7 |
| 20260902233048 | 65 | 312 | 0.0 | 0.0 | 0.00 | 0.00 | 0.00 | 63 | 1019.8 |
| 20260902231549 | 66 | 312 | 0.0 | 0.0 | 0.00 | 0.00 | 0.00 | 62 | 1019.5 |
| 20260902230035 | 66 | 312 | 0.0 | 0.0 | 0.00 | 0.00 | 0.00 | 62 | 1019.4 |
| 20260902224536 | 66 | 312 | 0.0 | 0.0 | 0.00 | 0.00 | 0.00 | 61 | 1019.3 |
| 20260902223030 | 67 | 312 | 0.0 | 0.0 | 0.00 | 0.00 | 0.00 | 60 | 1019.3 |
| 20260902221528 | 68 | 312 | 0.0 | 0.0 | 0.00 | 0.00 | 0.00 | 58 | 1019.2 |
| 20260902220026 | 67 | 312 | 0.0 | 0.0 | 0.00 | 0.00 | 0.00 | 59 | 1019.1 |
| 20260902214525 | 68 | 312 | 0.0 | 0.0 | 0.00 | 0.00 | 0.00 | 57 | 1018.8 |
| 20260902213024 | 69 | 311 | 0.0 | 0.0 | 0.00 | 0.00 | 0.00 | 56 | 1018.8 |
| 20260902211530 | 70 | 311 | 0.0 | 0.0 | 0.00 | 0.00 | 0.00 | 54 | 1018.6 |
| 20260902210025 | 70 | 320 | 0.0 | 0.0 | 0.00 | 0.00 | 0.00 | 55 | 1018.4 |
| 20260902204523 | 70 | 320 | 0.0 | 0.0 | 0.00 | 0.00 | 0.00 | 55 | 1018.4 |
| 20260902203023 | 71 | 319 | 0.0 | 0.0 | 0.00 | 0.00 | 0.00 | 53 | 1018.2 |
| 20260902201533 | 71 | 319 | 0.0 | 2.0 | 0.00 | 0.00 | 0.00 | 54 | 1018.1 |
| 20260902200023 | 72 | 315 | 0.0 | 1.0 | 0.00 | 0.00 | 0.00 | 53 | 1018.1 |
| 20260902194522 | 72 | 301 | 0.0 | 4.0 | 0.00 | 0.00 | 0.00 | 52 | 1017.9 |
| 20260902193021 | 72 | 323 | 0.0 | 3.0 | 0.00 | 0.00 | 0.00 | 52 | 1017.8 |
| 20260902191532 | 72 | 340 | 0.0 | 0.0 | 0.00 | 0.00 | 0.00 | 52 | 1017.6 |
| 20260902190020 | 72 | 256 | 0.0 | 0.0 | 0.00 | 0.00 | 0.00 | 52 | 1017.5 |
| 20260902184520 | 73 | 253 | 1.0 | 3.0 | 0.00 | 0.00 | 0.00 | 50 | 1017.3 |
| 20260902183023 | 74 | 250 | 0.0 | 2.0 | 0.00 | 0.00 | 0.00 | 50 | 1017.2 |
| 20260902181519 | 74 | 187 | 0.0 | 2.0 | 0.00 | 0.00 | 0.00 | 49 | 1017.0 |
| 20260902180019 | 75 | 186 | 0.0 | 3.0 | 0.00 | 0.00 | 0.00 | 48 | 1016.8 |
| 20260902174518 | 75 | 256 | 1.0 | 6.0 | 0.00 | 0.00 | 0.00 | 47 | 1016.4 |
| 20260902173018 | 76 | 191 | 1.0 | 6.0 | 0.00 | 0.00 | 0.00 | 46 | 1016.1 |
| 20260902171517 | 78 | 167 | 0.0 | 7.0 | 0.00 | 0.00 | 0.00 | 43 | 1016.0 |
| 20260902170020 | 79 | 196 | 1.0 | 9.0 | 0.00 | 0.00 | 0.00 | 43 | 1016.0 |
| 20260902164518 | 79 | 182 | 0.0 | 6.0 | 0.00 | 0.00 | 0.00 | 42 | 1015.8 |
| 20260902163016 | 79 | 217 | 2.0 | 7.0 | 0.00 | 0.00 | 0.00 | 41 | 1015.8 |
| 20260902161520 | 79 | 261 | 1.0 | 10.0 | 0.00 | 0.00 | 0.00 | 40 | 1015.6 |
| 20260902160015 | 81 | 215 | 3.0 | 8.0 | 0.00 | 0.00 | 0.00 | 38 | 1015.5 |
| 20260902154525 | 82 | 179 | 1.0 | 7.0 | 0.00 | 0.00 | 0.00 | 37 | 1015.4 |
| 20260902153014 | 82 | 219 | 1.0 | 13.0 | 0.00 | 0.00 | 0.00 | 36 | 1015.2 |
| 20260902151513 | 83 | 217 | 1.0 | 13.0 | 0.00 | 0.00 | 0.00 | 36 | 1015.2 |
| 20260902150013 | 82 | 165 | 1.0 | 12.0 | 0.00 | 0.00 | 0.00 | 36 | 1015.3 |
| 20260902144526 | 84 | 273 | 1.0 | 11.0 | 0.00 | 0.00 | 0.00 | 35 | 1015.5 |
| 20260902143016 | 84 | 213 | 3.0 | 8.0 | 0.00 | 0.00 | 0.00 | 34 | 1015.6 |
| 20260902141515 | 83 | 171 | 2.0 | 9.0 | 0.00 | 0.00 | 0.00 | 38 | 1015.6 |
| 20260902140015 | 83 | 207 | 4.0 | 9.0 | 0.00 | 0.00 | 0.00 | 37 | 1015.6 |
| 20260902134509 | 82 | 170 | 5.0 | 10.0 | 0.00 | 0.00 | 0.00 | 37 | 1015.7 |
| 20260902133003 | 82 | 200 | 3.0 | 11.0 | 0.00 | 0.00 | 0.00 | 38 | 1015.8 |
| 20260902131600 | 81 | 181 | 3.0 | 10.0 | 0.00 | 0.00 | 0.00 | 38 | 1016.0 |
| 20260902130104 | 81 | 209 | 1.0 | 10.0 | 0.00 | 0.00 | 0.00 | 38 | 1016.1 |
| 20260902124602 | 81 | 256 | 0.0 | 6.0 | 0.00 | 0.00 | 0.00 | 39 | 1016.2 |
| 20260902123101 | 81 | 232 | 0.0 | 7.0 | 0.00 | 0.00 | 0.00 | 40 | 1016.3 |
| 20260902121607 | 81 | 161 | 0.0 | 2.0 | 0.00 | 0.00 | 0.00 | 38 | 1016.5 |
| 20260902120053 | 80 | 279 | 0.0 | 6.0 | 0.00 | 0.00 | 0.00 | 37 | 1016.7 |
| 20260902114550 | 80 | 186 | 0.0 | 8.0 | 0.00 | 0.00 | 0.00 | 40 | 1016.9 |
| 20260902113053 | 79 | 236 | 0.0 | 8.0 | 0.00 | 0.00 | 0.00 | 42 | 1017.1 |
| 20260902111550 | 79 | 207 | 2.0 | 6.0 | 0.00 | 0.00 | 0.00 | 43 | 1017.3 |
| 20260902110046 | 77 | 171 | 0.0 | 3.0 | 0.00 | 0.00 | 0.00 | 42 | 1017.4 |
| 20260902104549 | 77 | 171 | 1.0 | 5.0 | 0.00 | 0.00 | 0.00 | 46 | 1017.7 |
| 20260902103039 | 75 | 180 | 1.0 | 4.0 | 0.00 | 0.00 | 0.00 | 47 | 1018.1 |
| 20260902101531 | 75 | 173 | 0.0 | 5.0 | 0.00 | 0.00 | 0.00 | 47 | 1018.4 |
| 20260902100028 | 73 | 161 | 0.0 | 3.0 | 0.00 | 0.00 | 0.00 | 53 | 1018.6 |
| 20260902094524 | 73 | 159 | 0.0 | 3.0 | 0.00 | 0.00 | 0.00 | 51 | 1018.7 |
| 20260902093022 | 73 | 167 | 0.0 | 4.0 | 0.00 | 0.00 | 0.00 | 54 | 1019.0 |
| 20260902091521 | 71 | 142 | 1.0 | 5.0 | 0.00 | 0.00 | 0.00 | 54 | 1019.1 |
| 20260902090017 | 69 | 165 | 1.0 | 5.0 | 0.00 | 0.00 | 0.00 | 57 | 1019.1 |
| 20260902084517 | 68 | 150 | 1.0 | 4.0 | 0.00 | 0.00 | 0.00 | 60 | 1019.2 |
| 20260902083009 | 67 | 179 | 0.0 | 3.0 | 0.00 | 0.00 | 0.00 | 64 | 1019.4 |
| 20260902081507 | 66 | 195 | 0.0 | 0.0 | 0.00 | 0.00 | 0.00 | 63 | 1019.6 |
| 20260902080005 | 66 | 213 | 0.0 | 3.0 | 0.00 | 0.00 | 0.00 | 62 | 1019.5 |
| 20260902074606 | 64 | 233 | 0.0 | 0.0 | 0.00 | 0.00 | 0.00 | 68 | 1019.4 |
| 20260902073101 | 64 | 183 | 0.0 | 4.0 | 0.00 | 0.00 | 0.00 | 65 | 1019.5 |
| 20260902071600 | 63 | 208 | 0.0 | 2.0 | 0.00 | 0.00 | 0.00 | 71 | 1019.6 |
| 20260902070054 | 61 | 214 | 0.0 | 0.0 | 0.00 | 0.00 | 0.00 | 73 | 1019.9 |
| 20260902064601 | 61 | 214 | 0.0 | 2.0 | 0.00 | 0.00 | 0.00 | 74 | 1019.8 |
| 20260902063053 | 57 | 309 | 0.0 | 0.0 | 0.00 | 0.00 | 0.00 | 78 | 1019.8 |
| 20260902061603 | 57 | 309 | 0.0 | 0.0 | 0.00 | 0.00 | 0.00 | 77 | 1020.0 |